TimeCDT,TemperatureF,Dew PointF,Humidity,Sea Level PressureIn,VisibilityMPH,Wind Direction,Wind SpeedMPH,Gust SpeedMPH,PrecipitationIn,Events,Conditions,WindDirDegrees,DateUTC
12:53 AM,46.0,44.1,93,30.07,10.0,North,8.1,-,N/A,,Overcast,350,2013-04-04 05:53:00
1:53 AM,46.0,44.1,93,30.04,7.0,North,6.9,-,N/A,,Overcast,10,2013-04-04 06:53:00
2:53 AM,45.0,45.0,100,30.02,4.0,NNW,5.8,-,0.00,,Overcast,330,2013-04-04 07:53:00
3:53 AM,45.0,44.1,97,30.00,4.0,NNW,8.1,-,0.00,,Overcast,340,2013-04-04 08:53:00
4:36 AM,44.6,44.6,100,29.98,10.0,NNW,4.6,-,N/A,,Overcast,340,2013-04-04 09:36:00
4:53 AM,45.0,44.1,97,30.00,10.0,NNW,3.5,-,N/A,,Overcast,340,2013-04-04 09:53:00
5:08 AM,44.6,44.6,100,29.99,9.0,NNW,5.8,-,N/A,,Overcast,330,2013-04-04 10:08:00
5:53 AM,45.0,44.1,97,30.01,3.0,NW,6.9,-,N/A,,Overcast,320,2013-04-04 10:53:00
6:53 AM,45.0,44.1,97,30.04,10.0,NNW,9.2,-,N/A,,Overcast,340,2013-04-04 11:53:00
7:53 AM,45.0,44.1,97,30.06,4.0,NNW,5.8,-,N/A,,Overcast,330,2013-04-04 12:53:00
8:53 AM,45.0,44.1,97,30.07,10.0,NW,9.2,-,N/A,,Overcast,310,2013-04-04 13:53:00
9:53 AM,45.0,44.1,97,30.08,10.0,WNW,11.5,-,N/A,,Overcast,300,2013-04-04 14:53:00
10:53 AM,46.0,43.0,89,30.09,10.0,WNW,9.2,-,N/A,,Overcast,300,2013-04-04 15:53:00
11:53 AM,46.9,44.1,90,30.09,10.0,WNW,8.1,-,N/A,,Overcast,300,2013-04-04 16:53:00
12:53 PM,48.9,44.1,83,30.07,10.0,NW,12.7,-,N/A,,Overcast,310,2013-04-04 17:53:00
1:40 PM,50.0,44.6,82,30.04,10.0,NW,10.4,-,N/A,,Overcast,320,2013-04-04 18:40:00
1:53 PM,48.9,44.1,83,30.05,10.0,WNW,12.7,18.4,N/A,,Overcast,300,2013-04-04 18:53:00
2:53 PM,48.0,44.1,86,30.05,10.0,WNW,15.0,20.7,N/A,,Overcast,300,2013-04-04 19:53:00
3:04 PM,48.2,44.6,87,30.03,10.0,WNW,12.7,-,N/A,,Overcast,300,2013-04-04 20:04:00
3:53 PM,48.0,43.0,83,30.04,10.0,WNW,13.8,20.7,N/A,,Overcast,300,2013-04-04 20:53:00
4:19 PM,48.2,42.8,82,30.02,10.0,WNW,15.0,-,N/A,,Overcast,300,2013-04-04 21:19:00
4:53 PM,48.0,43.0,83,30.04,10.0,NW,10.4,-,N/A,,Overcast,320,2013-04-04 21:53:00
5:32 PM,48.2,42.8,82,30.03,10.0,NW,13.8,-,N/A,,Overcast,310,2013-04-04 22:32:00
5:53 PM,46.9,44.1,90,30.05,6.0,WNW,12.7,-,N/A,,Overcast,300,2013-04-04 22:53:00
6:53 PM,46.9,44.1,90,30.06,8.0,NW,9.2,-,N/A,,Overcast,320,2013-04-04 23:53:00
7:53 PM,46.9,44.1,90,30.07,7.0,WNW,9.2,-,N/A,,Overcast,300,2013-04-05 00:53:00
8:35 PM,46.4,42.8,87,30.07,9.0,NNW,12.7,21.9,N/A,,Overcast,330,2013-04-05 01:35:00
8:53 PM,46.9,43.0,86,30.09,10.0,NNW,11.5,18.4,N/A,,Overcast,330,2013-04-05 01:53:00
9:53 PM,46.9,43.0,86,30.11,10.0,NNW,9.2,-,N/A,,Overcast,330,2013-04-05 02:53:00
10:53 PM,46.9,43.0,86,30.12,10.0,NW,10.4,-,N/A,,Overcast,320,2013-04-05 03:53:00
11:53 PM,46.9,43.0,86,30.13,10.0,NNW,9.2,-,N/A,,Overcast,330,2013-04-05 04:53:00